Home > Weather > Lichfield > Past weeks

Flag for United Kingdom Past Weather in Lichfield, England, United Kingdom — Yesterday and Last 2 Weeks

Now
57 °F

Light rain. Partly sunny.


Feels Like: 54 °F
Forecast: 51 / 62 °F
Wind: 14 mph from Southwest

Location: Birmingham / Airport

Current Time: Jun 29, 2016 at 1:43:34 PM

Latest Report: Jun 29, 2016 at 1:20 PM


Visibility: N/A

Pressure: 29.62 "Hg

Humidity: 94%

Dew Point: 55 °F

Location of LichfieldLocation

Past Weather in Lichfield — Graph

°F

Lichfield Temperature Yesterday

Maximum temperature yesterday: 64 °F (at 1:50 PM)
Minimum temperature yesterday: 48 °F (at 2:50 AM)
Average temperature yesterday: 56 °F

High & Low Weather Summary for the Past Weeks

 TemperatureHumidityPressure
High70 °F (Jun 20, 3:20 PM)100% (Jun 14, 10:50 PM)30.21 "Hg (Jun 14, 10:50 PM)
Low48 °F (Jun 28, 2:50 AM)40% (Jun 27, 6:20 PM)29.33 "Hg (Jun 14, 4:50 PM)
Average60 °F80%29.90 "Hg
* Reported Jun 14 12:20 PM — Jun 29 12:20 PM, Lichfield, Weather by CustomWeather, © 2016

Note: Actual official high and low records may vary slightly from our data, if they occured in-between our weather recording intervals... More about our weather records

Advertising

Lichfield Weather History for the Previous 24 Hours

Scroll right to see more
 ConditionsComfort  
Time TempWeatherWind HumidityBarometerVisibility
12:20 PM
Wed, Jun 29
55 °FLight rain. Partly sunny.13 mph100%29.65 "HgN/A
11:50 AM55 °FLight rain. Partly sunny.13 mph94%29.65 "HgN/A
11:20 AM55 °FPartly sunny.10 mph94%29.65 "HgN/A
10:50 AM55 °FLight rain. Broken clouds.13 mph94%29.68 "HgN/A
10:20 AM55 °FPartly sunny.13 mph94%29.68 "Hg5 mi
9:20 AM55 °FLight rain. Broken clouds.8 mph94%29.74 "Hg4 mi
8:50 AM55 °FSunny.9 mph88%29.74 "Hg10 mi
8:20 AM54 °FSunny.7 mph94%29.74 "Hg10 mi
7:50 AM54 °FSunny.7 mph88%29.77 "Hg10 mi
7:20 AM54 °FPassing clouds.5 mph88%29.77 "HgN/A
6:50 AM52 °FPassing clouds.6 mph94%29.77 "HgN/A
6:20 AM52 °FPassing clouds.7 mph94%29.77 "HgN/A
5:50 AM52 °FPassing clouds.7 mph94%29.77 "HgN/A
5:20 AM50 °FPassing clouds.8 mph100%29.77 "HgN/A
4:50 AM50 °FPassing clouds.7 mph100%29.77 "HgN/A
4:20 AM52 °FPassing clouds.6 mph94%29.77 "HgN/A
3:50 AM50 °FPassing clouds.8 mph100%29.77 "HgN/A
3:20 AM50 °FPartly cloudy.6 mph100%29.77 "HgN/A
2:50 AM50 °FPassing clouds.3 mph100%29.80 "HgN/A
2:20 AM52 °FClear.7 mph94%29.80 "Hg10 mi
1:50 AM52 °FPassing clouds.7 mph94%29.80 "HgN/A
1:20 AM54 °FOvercast.7 mph88%29.80 "HgN/A
12:50 AM54 °FMostly cloudy.8 mph94%29.77 "HgN/A
12:20 AM54 °FPartly cloudy.8 mph100%29.77 "HgN/A
11:50 PM
Tue, Jun 28
54 °FOvercast.14 mph100%29.77 "HgN/A
11:20 PM55 °FLight rain. Partly cloudy.8 mph94%29.74 "HgN/A
10:50 PM55 °FPassing clouds.2 mph94%29.74 "HgN/A
10:20 PM55 °FPartly sunny.2 mph94%29.71 "HgN/A
9:50 PM55 °FPartly sunny.2 mph94%29.71 "HgN/A
9:20 PM55 °FPartly sunny.3 mph94%29.71 "HgN/A
8:50 PM55 °FPartly sunny.6 mph94%29.71 "HgN/A
8:20 PM55 °FPartly sunny.8 mph94%29.71 "HgN/A
7:50 PM54 °FPartly sunny.8 mph100%29.71 "HgN/A
7:20 PM54 °FBroken clouds.9 mph100%29.74 "HgN/A
6:50 PM55 °FScattered clouds.9 mph88%29.74 "Hg4 mi
6:20 PM55 °FScattered clouds.10 mph100%29.74 "HgN/A
5:50 PM55 °FSprinkles. Scattered clouds.9 mph94%29.77 "HgN/A
5:20 PM55 °FScattered clouds.6 mph94%29.80 "HgN/A
4:50 PM55 °FRain. Scattered clouds.13 mph94%29.77 "HgN/A
4:20 PM55 °FRain. Scattered clouds.6 mph94%29.83 "Hg4 mi
3:50 PM57 °FLight rain. Passing clouds.7 mph88%29.86 "HgN/A
3:20 PM57 °FScattered clouds.6 mph88%29.86 "HgN/A
2:50 PM57 °FLight rain. Scattered clouds.3 mph88%29.86 "HgN/A
2:20 PM63 °FScattered showers. Scattered clouds.8 mph56%29.86 "HgN/A
1:50 PM64 °FScattered clouds.9 mph52%29.89 "HgN/A
1:20 PM63 °FScattered clouds.2 mph59%29.89 "HgN/A
Weather by CustomWeather, © 2016

See weather overviewHow to use our weather pages